Regional Weather Roundup
Issued by NWS

Home | Current Version | Previous Version | Text Only | Print | Product List | Glossary Off
Versions: 1 2 3 4 5 6 7 8 9 10 11 12 13 14 15 16 17 18 19 20 21 22 23 24 25 26 27 28 29 30 31 32 33 34 35 36 37 38 39 40 41 42 43 44 45 46 47 48 49 50

000
ASUS43 KDTX 222301
RWRMI
MICHIGAN HOURLY REGIONAL WEATHER ROUNDUP
NATIONAL WEATHER SERVICE DETROIT/PONTIAC MI
700 PM EDT SUN OCT 22 2017

NOTE: "FAIR" INDICATES FEW OR NO CLOUDS BELOW 12,000 FEET WITH NO
SIGNIFICANT WEATHER AND/OR OBSTRUCTION TO VISIBILITY.

MIZ047>049-052>055-059>063-066>070-074>076-081>083-230000-
SOUTHEAST LOWER MICHIGAN

CITY           SKY/WX    TMP DP  RH WIND       PRES   REMARKS
ADRIAN         MOCLDY    72  53  51 S14       30.04S
ALMA           CLOUDY    70  58  64 SW9       29.97S
ANN ARBOR      CLEAR     72  54  53 S9        30.03S
BAD AXE        MOCLDY    69  55  59 S12       30.01S
CARO           PTCLDY    71  55  57 S10G20    29.99S
DETROIT CITY   CLEAR     72  54  53 S9        30.05R
DETROIT        MOCLDY    72  55  55 S10       30.05S
FLINT          PTCLDY    72  55  55 S10       30.01S
GROSSE ILE     PTCLDY    68  56  67 S13G18    30.04S
HILLSDALE      CLOUDY    70  54  56 S10       30.02F
HOWELL         CLOUDY    71  55  56 S7        30.01F

CITY           SKY/WX    TMP DP  RH WIND       PRES   REMARKS
JACKSON        PTCLDY    73  54  51 SE14G20   30.00F
LAMBERTVILLE   PTCLDY    75  51  42 S5        30.04S
LANSING        MOCLDY    73  56  54 S9        29.99S
LAPEER         FAIR      70  55  57 S8        30.03S
MASON          MOCLDY    72  56  57 S10       29.99F
MONROE         PTCLDY    74  51  45 S10       30.04S
MT. CLEMENS    MOCLDY    66  59  77 S12       30.04R
PONTIAC        MOCLDY    70  57  63 SE8       30.03R
PORT HOPE        N/A     71  56  58 S14G22    29.98S
PORT HURON     PTCLDY    72  55  56 S8G16     30.06R
TRI CITIES     CLOUDY    74  58  57 S13       29.97R
MIDLAND        LGT RAIN  74  58  56 S12       29.95R
TROY           PTCLDY    72  55  54 S7        30.07R
SAGINAW HB     CLOUDY    72  55  56 S13       29.97S
$$
MIZ043>046-050>051-056>058-064>065-071>073-077>080-230000-
SOUTHWEST LOWER MICHIGAN

CITY           SKY/WX    TMP DP  RH WIND       PRES   REMARKS
BATTLE CREEK   CLOUDY    72  59  63 S7        29.99S
BENTON HARBOR  LGT RAIN  60  58  92 NW7       29.99R FOG
BIG RAPIDS     DRIZZLE   59  57  92 NW3       29.97R
COLDWATER      MOCLDY    72  53  51 S8G16     30.00S
FREMONT        RAIN      55  55 100 NW6       29.99R
HOLLAND        LGT RAIN  60  57  89 NW5       29.99R FOG
GRAND RAPIDS   LGT RAIN  67  63  87 S7        29.96F
IONIA          CLOUDY    70  59  68 S5        29.95F
KALAMAZOO      CLOUDY    70  57  63 S8        29.98R
LUDINGTON      CLOUDY    51  49  92 N3        30.00S
MARSHALL       MOCLDY    72  56  57 S7        29.99S
MOUNT PLEASANT LGT RAIN  69  62  78 SW9       29.97R
MUSKEGON       LGT RAIN  55  53  93 N13       29.99R
SOUTH HAVEN    HVY RAIN  64  62  93 W10G22    29.99R
$$
MIZ016>042-230000-
NORTHERN LOWER MICHIGAN

CITY           SKY/WX    TMP DP  RH WIND       PRES   REMARKS
ALPENA         CLOUDY    65  57  75 S8        29.92R
BEAVER ISLAND  DRIZZLE   53  50  90 N8        29.98R
BELLAIRE       HVY RAIN  53  50  90 NW3       30.00R
CADILLAC       DRIZZLE   56  53  90 NW7       29.99R
CHARLEVOIX     RAIN      54  52  95 NW9       30.02R
FRANKFORT      DRIZZLE   54  52  94 N3        30.01R
GAYLORD        CLOUDY    55  52  89 W8        29.96R
GRAYLING       LGT RAIN  57  55  92 W6        29.98R
HARBOR SPRINGS DRIZZLE   55  52  92 NW12G20   29.96R
HOUGHTON LAKE  LGT RAIN  64  62  93 SW7       29.97R FOG
MANISTEE       LGT RAIN  53  51  93 N7        30.00S
OSCODA         CLOUDY    72  55  56 S7G23     29.94R
PELLSTON       LGT RAIN  55  54  96 W12       29.95R
ROGERS CITY    HVY RAIN  61  58  91 NW7       29.95R
TRAVERSE CITY  LGT RAIN  54  51  90 NW6       29.99R FOG
$$
MIZ007>008-015-230000-
EASTERN UPPER MICHIGAN

CITY           SKY/WX    TMP DP  RH WIND       PRES   REMARKS
KINROSS        RAIN      51  50  96 NW10      29.95R
MACKINAC ISLAN RAIN      56  56 100 N10G18    29.94R
NEWBERRY       LGT RAIN  48  47  97 W3        29.97R
S. S. MARIE    RAIN      52  49  89 NW8G20    29.95R FOG
MUNISING         N/A     50  50 100 S5        29.95R
$$
MIZ004>006-011>014-085-230000-
CENTRAL UPPER MICHIGAN

CITY           SKY/WX    TMP DP  RH WIND       PRES   REMARKS
MANISTIQUE     RAIN      49  44  81 CALM      29.97R
ESCANABA       LGT RAIN  51  49  92 CALM      29.96F
MENOMINEE      LGT RAIN  51  50  96 S3        29.99R
SAWYER-GWINN   CLOUDY    46  45  93 SW3       29.95R
$$
MIZ001>003-009>011-084-230000-
WESTERN UPPER MICHIGAN

CITY           SKY/WX    TMP DP  RH WIND       PRES   REMARKS
IRON MOUNTAIN  CLOUDY    49  46  90 S3        29.95R
HOUGHTON       CLOUDY    51  38  60 SW5       29.89R
COPPER HARBOR    N/A     51  42  71 CALM      29.89R
IRONWOOD       CLOUDY    51  38  60 S5        29.92R
$$

ABBREVIATIONS USED IN REMARKS
   TC - TEMPERATURE IN CELSIUS
  WCI - WIND CHILL INDEX
   HX - HEAT INDEX
  VSB - VISIBILITY





USA.gov is the U.S. government's official web portal to all federal, state and local government web resources and services.